[[{"header":{"parameterUnit":"m.s-1","parameterCategory":1,"la1":30.2992,"la2":30.254,"lo1":-89.0895,"lo2":-89.0443,"dy":0.0025,"dx":0.0025,"nx":19,"ny":19,"refTime":"2026-05-06T21:00:00:Z","depth":0,"parameterNumber":2,"parameterNumberName":"U-component_of_WINDS"},"data":[0,0,0,3.7472,3.7472,3.7495,3.7495,3.7545,3.7545,0,0,0,0,0,0,0,0,0,0,0,3.7477,3.7478,3.7471,3.7472,3.7495,3.7495,3.7545,3.7546,0,0,0,0,0,0,0,0,0,0,0,3.7477,3.7478,3.7479,3.7473,3.7495,3.7495,3.7545,3.752,0,0,0,0,0,0,0,0,0,0,3.7495,3.7512,3.7478,3.7479,3.7473,3.7495,3.7495,3.7519,3.7522,3.7544,0,3.7566,0,3.7557,3.755,3.755,0,0,0,3.7463,3.751,3.7505,3.7479,3.7473,3.7495,3.7482,3.752,3.7524,3.7548,3.7567,3.7568,3.7558,3.7551,3.7551,3.7709,3.7711,0,0,3.7462,3.7488,3.7502,3.7507,3.7505,3.7481,3.7483,3.7522,3.7544,3.7567,3.7569,3.7559,3.7551,3.7552,3.7708,3.771,0,0,0,3.7465,3.7488,3.7481,3.7506,3.7508,3.7482,3.7484,3.7543,3.7538,3.7569,3.7559,3.7552,3.7552,3.7707,3.7709,3.7793,0,0,0,3.7463,3.7489,3.7481,3.7498,3.7508,3.7526,3.7504,3.7536,3.7539,3.7559,3.7552,3.7553,3.7706,3.7708,3.7788,3.7829,0,0,0,3.7472,3.749,3.7498,3.7499,3.751,3.7524,3.7522,3.7536,3.7533,3.755,3.7553,3.7705,3.7707,3.7783,3.7821,3.7878,0,0,0,3.7488,3.7572,3.75,3.7589,3.751,3.7577,3.7521,3.757,3.7595,3.7552,3.7706,3.7709,3.7782,3.7816,3.7873,3.7931,3.7958,0,0,3.7609,3.7588,3.7638,3.7574,3.7661,3.7571,3.767,3.7667,3.7645,3.7689,3.7693,3.779,3.782,3.7877,3.8097,3.8119,0,0,0,3.7686,3.7723,3.774,3.7764,3.7765,3.7768,3.7748,3.7747,3.7783,3.7673,3.7825,3.7842,3.7875,3.7901,3.7919,3.7945,3.7722,3.7722,3.7721,3.7894,3.7861,3.7943,3.7913,3.7938,3.7916,3.7933,3.7928,3.7887,3.7924,3.7937,3.8075,3.8107,3.812,3.8148,3.7964,3.7965,3.7965,3.7965,3.8068,3.8115,3.8059,3.8118,3.8083,3.8132,3.8115,3.8085,3.8126,3.8062,3.8089,3.8022,3.8144,3.8167,3.7971,3.797,3.797,3.7969,3.7969,3.8202,3.8218,3.8216,3.8249,3.8278,3.8244,3.8287,3.8253,3.8221,3.8248,3.8258,3.8256,3.8251,3.8255,3.8255,3.8256,3.8256,3.8257,3.8257,3.8341,3.8335,3.8375,3.8383,3.8395,3.8406,3.8386,3.8396,3.8399,3.8371,3.8371,3.8327,3.8163,3.8122,3.8264,3.8263,3.8262,3.8261,3.8261,3.8529,3.8481,3.8543,3.8555,3.8562,3.8593,3.8549,3.8574,3.8578,3.8601,3.8551,3.8434,3.841,3.8396,3.8362,3.8557,3.8557,3.8557,3.8557,3.8642,3.8626,3.8682,3.8703,3.872,3.8687,3.8758,3.8744,3.8721,3.8722,3.8688,3.8641,3.8627,3.8611,3.8592,3.8559,3.8801,3.8801,3.8801,3.8756,3.8741,3.8808,3.8785,3.8788,3.8791,3.8857,3.8884,3.8849,3.8811,3.8721,3.8711,3.8634,3.861,3.857,3.8541,3.8481,0,0]},{"header":{"parameterUnit":"m.s-1","parameterCategory":1,"la1":30.2992,"la2":30.254,"lo1":-89.0895,"lo2":-89.0443,"dy":0.0025,"dx":0.0025,"nx":19,"ny":19,"refTime":"2026-05-06T21:00:00:Z","depth":0,"parameterNumber":3,"parameterNumberName":"V-component_of_WINDS"},"data":[0,0,0,4.5735,4.5739,4.5975,4.5975,4.6265,4.6268,0,0,0,0,0,0,0,0,0,0,0,4.5659,4.566,4.5734,4.574,4.5974,4.5976,4.6265,4.6268,0,0,0,0,0,0,0,0,0,0,0,4.5658,4.566,4.5662,4.5741,4.5974,4.5976,4.6264,4.6091,0,0,0,0,0,0,0,0,0,0,4.5864,4.5788,4.566,4.5662,4.5742,4.5974,4.5976,4.6083,4.6102,4.6155,0,4.62,0,4.6239,4.6287,4.6288,0,0,0,4.5744,4.5773,4.5842,4.5663,4.5744,4.5974,4.587,4.6093,4.6115,4.618,4.6204,4.6215,4.6243,4.6288,4.629,4.6582,4.6583,0,0,4.5731,4.5698,4.5827,4.5855,4.5819,4.5862,4.5877,4.6107,4.6131,4.6205,4.6222,4.6248,4.629,4.6292,4.658,4.6582,0,0,0,4.5691,4.5688,4.5752,4.5843,4.5886,4.5869,4.5886,4.6121,4.6144,4.6226,4.6252,4.6292,4.6295,4.6579,4.6581,4.6606,0,0,0,4.5683,4.5665,4.5746,4.5728,4.5882,4.6006,4.5895,4.6129,4.6156,4.625,4.6292,4.6298,4.6578,4.658,4.6603,4.6624,0,0,0,4.5646,4.566,4.5692,4.5725,4.5825,4.6004,4.6041,4.6135,4.6171,4.6288,4.6299,4.6577,4.658,4.66,4.6619,4.6692,0,0,0,4.5595,4.571,4.5692,4.5831,4.5823,4.6017,4.6039,4.6186,4.6288,4.6293,4.6578,4.6581,4.6599,4.6616,4.6689,4.6749,4.677,0,0,4.5722,4.5724,4.5809,4.5799,4.5988,4.5984,4.6177,4.6303,4.6344,4.65,4.6508,4.6604,4.6619,4.6692,4.6899,4.6916,0,0,0,4.5837,4.5898,4.5955,4.6052,4.6151,4.6239,4.6338,4.6385,4.652,4.6417,4.665,4.666,4.6704,4.6735,4.6749,4.679,4.6593,4.6593,4.6592,4.5968,4.6016,4.616,4.6236,4.6329,4.6432,4.6513,4.6593,4.6613,4.6667,4.6714,4.6834,4.6868,4.6879,4.6921,4.6748,4.6749,4.6749,4.6749,4.6159,4.6253,4.6278,4.6426,4.6476,4.6601,4.6704,4.6714,4.6838,4.6802,4.6844,4.6802,4.6896,4.6935,4.6751,4.6751,4.675,4.675,4.675,4.6251,4.6305,4.636,4.6506,4.6613,4.6686,4.6805,4.6845,4.6884,4.6925,4.698,4.698,4.6986,4.6948,4.6949,4.6949,4.6949,4.695,4.695,4.6325,4.6387,4.6482,4.6598,4.6667,4.6762,4.6866,4.6935,4.7021,4.7041,4.7042,4.7057,4.6896,4.6855,4.6957,4.6955,4.6955,4.6954,4.6954,4.6503,4.647,4.6617,4.6686,4.6826,4.693,4.6981,4.7117,4.7179,4.7236,4.7243,4.7117,4.7122,4.7111,4.7078,4.7231,4.7231,4.7231,4.7231,4.6582,4.6589,4.675,4.6857,4.6967,4.7027,4.7193,4.7275,4.7355,4.7397,4.738,4.7339,4.7326,4.734,4.7324,4.7294,4.7498,4.7498,4.7499,4.6695,4.6715,4.6848,4.6927,4.704,4.7136,4.7293,4.7415,4.7499,4.751,4.7431,4.742,4.7354,4.733,4.734,4.7315,4.726,0,0]}]]